This demonstration page uses our WeatherBlox Daily Observations layout. Learn more.

Left ArrowRight Arrow

Hourly Observations for December 6, 2017

Temp ( °F °C ) Dew Point ( °F °C ) Humidity (%) Winds ( mph kmh ) Pressure ( in mb ) Visibility ( mi km ) Precip ( " mm )
12:53 am 00:53 Cloudy 43 6.1 14 -10 31 31 SE 6 9 30.27 1025 10 16 0.00 0.00
1:53 am 01:53 Cloudy 43 6.1 15 -9.4 32 32 SSE 5 7 30.28 1025 10 16 0.00 0.00
2:53 am 02:53 Cloudy 42 5.6 20 -6.7 41 41 SE 6 9 30.26 1025 10 16 0.00 0.00
3:53 am 03:53 Cloudy with Light Rain 37 2.8 31 -0.6 79 79 S 6 9 30.27 1025 10 16 0.01 0.25
4:53 am 04:53 Cloudy 36 2.2 33 0.6 89 89 SSE 7 11 30.27 1025 10 16 0.01 0.25
5:53 am 05:53 Cloudy with Light Rain 36 2.2 33 0.6 89 89 S 6 9 30.26 1025 10 16 0.01 0.25
6:53 am 06:53 Cloudy 35 1.7 33 0.6 93 93 ESE 5 7 30.28 1025 10 16 0.01 0.25
7:53 am 07:53 Cloudy with Light Rain 36 2.2 34 1.1 93 93 Calm 30.29 1026 10 16 0.01 0.25
8:05 am 08:05 Cloudy with Light Rain 36 2.2 34 1.1 93 93 SE 3 6 30.39 1029 10 16 0.00 0.03
8:28 am 08:28 Cloudy with Light Rain 35 1.7 33 0.6 93 93 SE 6 9 30.39 1029 10 16 0.01 0.25
8:53 am 08:53 Cloudy with Light Rain 36 2.2 34 1.1 93 93 SE 6 9 30.30 1026 10 16 0.02 0.51
9:11 am 09:11 Cloudy with Light Rain 35 1.7 34 1.1 96 96 Calm 30.42 1030 8 13 0.01 0.25
9:32 am 09:32 Cloudy with Light Rain 36 2.2 34 1.1 93 93 E 6 9 30.42 1030 6 10 0.02 0.51
9:53 am 09:53 Cloudy with Light Rain 36 2.2 34 1.1 93 93 ESE 6 9 30.33 1027 7 11 0.04 1.02
10:00 am 10:00 Cloudy with Light Rain 36 2.2 34 1.1 93 93 ESE 6 9 30.42 1030 8 13 0.00 0.03
10:38 am 10:38 Cloudy with Light Rain 36 2.2 34 1.1 93 93 E 6 9 30.45 1031 8 13 0.02 0.51
10:53 am 10:53 Cloudy with Light Rain 36 2.2 35 1.7 97 97 ESE 8 13 30.34 1028 5 8 0.03 0.76
11:11 am 11:11 Cloudy with Light Rain 36 2.2 34 1.1 93 93 ESE 6 9 30.45 1031 6 10 0.02 0.51
11:53 am 11:53 Cloudy with Light Rain 37 2.8 35 1.7 93 93 E 6 9 30.33 1027 8 13 0.04 1.02
12:46 pm 12:46 Cloudy with Light Rain 37 2.8 35 1.7 93 93 NE 7 11 30.39 1029 7 11 0.02 0.51
12:53 pm 12:53 Cloudy with Light Rain 37 2.8 35 1.7 93 93 ENE 7 11 30.30 1026 6 10 0.02 0.51
1:36 pm 13:36 Cloudy 38 3.3 36 2.2 93 93 NE 9 15 30.36 1028 9 14 0.02 0.51
1:53 pm 13:53 Cloudy 38 3.3 36 2.2 93 93 NE 8 13 30.28 1025 8 13 0.02 0.51
2:01 pm 14:01 Cloudy 38 3.3 35 1.7 89 89 NE 10 17 30.36 1028 8 13 0.00 0.00
2:10 pm 14:10 Cloudy 37 2.8 34 1.1 89 89 NNE 10 17 30.36 1028 10 16 0.00 0.00
2:53 pm 14:53 Cloudy 38 3.3 35 1.7 89 89 NNE 8 13 30.29 1026 10 16 0.00 0.03
3:53 pm 15:53 Cloudy 37 2.8 34 1.1 89 89 NNE 7 11 30.31 1026 10 16 0.00 0.00
4:30 pm 16:30 Cloudy with Light Rain 37 2.8 35 1.7 93 93 N 9 15 30.36 1028 7 11 0.02 0.51
4:41 pm 16:41 Cloudy with Light Rain 37 2.8 35 1.7 93 93 N 10 17 30.39 1029 9 14 0.02 0.51
4:48 pm 16:48 Cloudy with Light Rain 36 2 36 2 100 100 NNE 10 17 30.39 1029 9 14 0.02 0.51
4:53 pm 16:53 Cloudy 36 2.2 34 1.1 93 93 NNE 10 17 30.32 1027 10 16 0.02 0.51
5:06 pm 17:06 Cloudy 36 2.2 34 1.1 93 93 N 12 19 30.42 1030 10 16 0.00 0.00
5:28 pm 17:28 Cloudy 36 2.2 35 1.7 97 97 NNE 10 17 30.42 1030 10 16 0.00 0.00
5:39 pm 17:39 Cloudy 36 2.2 35 1.7 97 97 NNE 9 15 30.39 1029 10 16 0.01 0.25
5:53 pm 17:53 Cloudy 36 2.2 35 1.7 97 97 N 8 13 30.33 1027 10 16 0.01 0.25
6:04 pm 18:04 Cloudy 36 2.2 35 1.7 97 97 NNE 6 9 30.42 1030 10 16 0.00 0.00
6:19 pm 18:19 Cloudy with Light Rain 36 2.2 35 1.7 97 97 NE 7 11 30.39 1029 8 13 0.00 0.03
6:28 pm 18:28 Cloudy 36 2.2 34 1.1 93 93 NNE 9 15 30.42 1030 7 11 0.00 0.03
6:53 pm 18:53 Cloudy with Light Rain 36 2.2 35 1.7 97 97 NE 8 13 30.33 1027 6 10 0.01 0.25
7:18 pm 19:18 Cloudy with Light Rain 35 1.7 34 1.1 96 96 NNE 7 11 30.42 1030 7 11 0.00 0.03
7:37 pm 19:37 Cloudy 36 2.2 34 1.1 93 93 NE 6 9 30.42 1030 10 16 0.00 0.03
7:53 pm 19:53 Cloudy 36 2.2 35 1.7 97 97 NE 6 9 30.35 1028 9 14 0.00 0.03
8:53 pm 20:53 Cloudy 36 2.2 34 1.1 93 93 NE 10 17 30.35 1028 9 14 0.02 0.51
9:53 pm 21:53 Cloudy 35 1.7 34 1.1 96 96 ENE 8 13 30.36 1028 10 16 0.00 0.00
10:53 pm 22:53 Cloudy with Light Rain 35 1.7 34 1.1 96 96 ENE 8 13 30.37 1028 7 11 0.00 0.03
11:31 pm 23:31 Cloudy with Light Snow 34 1.1 33 0.6 97 97 ENE 8 13 30.45 1031 4 6 0.02 0.51
11:53 pm 23:53 Cloudy with Light Snow 33 0.6 33 0.6 100 100 ENE 6 9 30.37 1029 3 5 0.04 1.02

Powered by AerisWeather